ARIANE 2 DEB, 42489

Orbit data source: Space-Track

ARIANE 2 DEB, 42489 is space debris in HEO originally from a launch on Fri, 27 Jan 1989 UTC launched from the French Guiana (FRGUI). Debris objects in space refer to the collection of defunct objects orbiting the Earth. Examples of debris include non-operational satellites, rocket bodies, and fragments generated from explosions, collisions, or faulty payload assembly.

Loading next visibility...
ARIANE 2 DEB details
Identifier
42489, 1989-006CR
Orbit
HEO
Last TLE update4 months ago
Origin
Flag of FRArianespace (FR)
ManufacturerEADS/LV
MissionSpacecraft
Bus & MotorUnknown
MassUnknown
Launch date (UTC)
1989-01-27 (36 years ago)
Launch vehicleUnknown
Launch site
French Guiana (FRGUI)
Object type
Payload
Rocket body
Debris
Shape & HBRUnknown
Radar Cross SectionMedium (>0.1 m² and <1 m²)

Expand to show TLE details & history

TLE from 4 months ago
0 ARIANE 2 DEB
1 42489U 89006CR  24228.46125038 -.00000097  00000-0  00000+0 0  9993
2 42489   9.8006  51.3859 6820659 144.5476  85.0904  2.19970790170952
Epoch: 2024-08-15T11:04Z
Definitive object data (Epoch: 2024-08-15T11:04:12.032Z)
Latitude-8.82075°
Longitude-142.80157°
Altitude26,925.253 km
Speed2.824 km/s
True Right ascension23h 10m 23s
True Declination-8° 48' 35"
Sunlit
Object was in daylight at TLE epoch
Visualization TLE readout
Latitude6.26607°
Longitude-80.26713°
Altitude35,541.38 km
Speed1.749 km/s
Apparent Right ascension03h 35m 30s
Apparent Declination0° 37' 38"
Sunlit
Object is in daylight
Visualization observer readout
Local Sidereal Time17:50:33
Azimuth45.725° ENE
Elevation-39.092°
Doppler factor1
Orbital elements
Apogee altitude35,637.419 km
Perigee altitude1,563.394 km
Semi-major axis24,978.543 km
Eccentricity0.6820659
Inclination9.8006°
RAAN51.3859°
Arg. of periapsis144.5476°
True anomaly151.38284°
Mean anomaly85.0904°
Eccentric anomaly119.20282°
Mean motion0.54978 °/min
BSTARUnknown
Orbital period654.8 mins
Loading maneuver chart data...
Loading historical data...
Loading historical data...
Loading historical data...
Loading historical data...
Loading historical data...
Loading historical data...
Loading historical data...

ARIANE 2 DEB Visibility forecast

Observer location: undefined°, undefined

Span
Click to sort rows by Start time (UTC) header in descending order
Start Az.
Max El. time (UTC)
Max El. Az.
Max El.
End time (UTC)
End Az.
596 mins2024-12-27 00:54:03.417Z219.619° SW2024-12-27 04:18:03.417Z204.726° SW35.831°2024-12-27 10:50:03.417Z149.316° SSE
|